Weather History for KEGI - September, 2012

Change the Weather History Date:

Saturday, September 29, 2012

  Actual Average Record
Temperature  
Mean Temperature 76 °F -  
Max Temperature 86 °F - - ()
Min Temperature 66 °F - - ()
Cooling Degree Days 10    
Growing Degree Days 26 (Base 50)    
Moisture  
Dew Point 68 °F    
Average Humidity 91    
Maximum Humidity 100    
Minimum Humidity 54    
Precipitation  
Precipitation 0.20 in - - ()
Sea Level Pressure  
Sea Level Pressure 29.96 in    
Wind  
Wind Speed 1 mph (West)    
Max Wind Speed 14 mph    
Max Gust Speed -    
Visibility 4 miles    
Events Fog , Rain    
T = Trace of Precipitation, MM = Missing Value Source: NWS Daily Summary

Daily Weather History Graph

Daily Weather History Graph

Search for Another Location

Airport or City:

Trip Planner

Search our weather history database for the weather conditions in past years. The results will help you decide how hot, cold, wet, or windy it might be!

Date:

Astronomy

Sep. 29, 2012 Rise Set
Actual Time 6:38 AM CDT 6:33 PM CDT
Civil Twilight 6:14 AM CDT 6:57 PM CDT
Nautical Twilight 5:46 AM CDT 7:25 PM CDT
Astronomical Twilight 5:18 AM CDT 7:53 PM CDT
Moon 6:08 PM CDT (9/29) 6:08 AM CDT (9/29)
Length of Visible Light 12h 42m
Length of Day
11h 54m
Full, 100% of the Moon is Illuminated
Sep 29
Full
Sep 29
Full
Oct 8
Last Quarter
Oct 15
New
Oct 21
First Quarter

Hourly Weather History & Observations

Time (CDT) Temp. Heat Index Dew Point Humidity Pressure Visibility Wind Dir Wind Speed Gust Speed Precip Events Conditions
12:55 AM 69.4 °F - 67.5 °F 93% 30.01 in 10.0 mi Calm Calm - N/A   Clear
1:55 AM 68.5 °F - 67.3 °F 96% 30.00 in 5.0 mi Calm Calm - N/A   Clear
2:55 AM 67.6 °F - 66.6 °F 96% 29.99 in 4.0 mi Calm Calm - N/A   Clear
3:18 AM 68.0 °F - 66.2 °F 94% 29.98 in 2.5 mi Calm Calm - N/A   Clear
3:19 AM 68.0 °F - 66.2 °F 94% 29.98 in 1.8 mi Calm Calm - N/A   Clear
3:20 AM 68.0 °F - 66.2 °F 94% 29.98 in 1.2 mi Calm Calm - N/A   Clear
3:21 AM 68.0 °F - 66.2 °F 94% 29.98 in 1.0 mi Calm Calm - N/A   Clear
3:22 AM 68.0 °F - 66.2 °F 94% 29.98 in 0.8 mi Calm Calm - N/A   Clear
3:24 AM 68.0 °F - 66.2 °F 94% 29.98 in 0.5 mi Calm Calm - N/A Fog Fog
3:27 AM 68.0 °F - 66.2 °F 94% 29.98 in 0.2 mi Calm Calm - N/A Fog Fog
3:38 AM 68.0 °F - 66.2 °F 94% 29.97 in 0.5 mi Calm Calm - N/A Fog Fog
3:51 AM 66.2 °F - 66.2 °F 100% 29.97 in 0.8 mi Calm Calm - N/A   Clear
3:55 AM 66.4 °F - 65.3 °F 96% 29.97 in 1.0 mi Calm Calm - N/A   Clear
3:56 AM 66.2 °F - 64.4 °F 94% 29.98 in 1.8 mi Calm Calm - N/A   Clear
3:57 AM 66.2 °F - 64.4 °F 94% 29.97 in 2.5 mi Calm Calm - N/A   Clear
3:58 AM 66.2 °F - 64.4 °F 94% 29.97 in 3.0 mi Calm Calm - N/A   Clear
4:07 AM 66.2 °F - 64.4 °F 94% 29.98 in 2.5 mi Calm Calm - N/A   Clear
4:08 AM 66.2 °F - 64.4 °F 94% 29.98 in 2.0 mi Calm Calm - N/A   Clear
4:09 AM 66.2 °F - 66.2 °F 100% 29.98 in 1.5 mi Calm Calm - N/A   Clear
4:10 AM 66.2 °F - 66.2 °F 100% 29.98 in 1.0 mi Calm Calm - N/A   Clear
4:12 AM 66.2 °F - 66.2 °F 100% 29.98 in 0.8 mi Calm Calm - N/A   Clear
4:15 AM 66.2 °F - 66.2 °F 100% 29.98 in 0.5 mi Calm Calm - N/A Fog Fog
4:26 AM 68.0 °F - 66.2 °F 94% 29.98 in 0.8 mi Calm Calm - N/A   Partly Cloudy
4:29 AM 68.0 °F - 66.2 °F 94% 29.98 in 1.0 mi Calm Calm - N/A   Partly Cloudy
4:31 AM 68.0 °F - 66.2 °F 94% 29.98 in 1.2 mi Calm Calm - N/A   Partly Cloudy
4:32 AM 68.0 °F - 66.2 °F 94% 29.98 in 1.5 mi Calm Calm - N/A   Partly Cloudy
4:33 AM 68.0 °F - 66.2 °F 94% 29.98 in 1.2 mi Calm Calm - N/A   Partly Cloudy
4:35 AM 68.0 °F - 66.2 °F 94% 29.98 in 1.0 mi Calm Calm - N/A   Partly Cloudy
4:36 AM 66.2 °F - 66.2 °F 100% 29.98 in 0.8 mi Calm Calm - N/A   Partly Cloudy
4:38 AM 66.2 °F - 66.2 °F 100% 29.98 in 0.5 mi Calm Calm - N/A Fog Fog
4:55 AM 66.9 °F - 66.2 °F 98% 29.98 in 0.5 mi Calm Calm - N/A Fog Fog
4:56 AM 66.2 °F - 66.2 °F 100% 29.98 in 0.8 mi Calm Calm - N/A   Partly Cloudy
5:00 AM 68.0 °F - 66.2 °F 94% 29.98 in 1.0 mi Calm Calm - N/A   Scattered Clouds
5:01 AM 68.0 °F - 66.2 °F 94% 29.98 in 1.2 mi Calm Calm - N/A   Scattered Clouds
5:02 AM 68.0 °F - 66.2 °F 94% 29.98 in 1.8 mi Calm Calm - N/A   Scattered Clouds
5:03 AM 68.0 °F - 66.2 °F 94% 29.98 in 2.0 mi Calm Calm - N/A   Scattered Clouds
5:04 AM 68.0 °F - 66.2 °F 94% 29.98 in 2.5 mi Calm Calm - N/A   Scattered Clouds
5:05 AM 66.2 °F - 66.2 °F 100% 29.98 in 3.0 mi Calm Calm - N/A   Scattered Clouds
5:55 AM 67.8 °F - 67.1 °F 98% 29.98 in 5.0 mi Calm Calm - N/A   Mostly Cloudy
6:55 AM 68.9 °F - 68.4 °F 98% 29.98 in 3.0 mi Calm Calm - N/A   Overcast
7:03 AM 68.0 °F - 68.0 °F 100% 29.98 in 2.0 mi Calm Calm - N/A   Mostly Cloudy
7:06 AM 69.8 °F - 68.0 °F 94% 29.99 in 2.5 mi Calm Calm - N/A   Overcast
7:12 AM 69.8 °F - 68.0 °F 94% 29.99 in 2.0 mi Calm Calm - N/A   Overcast
7:48 AM 71.6 °F - 69.8 °F 94% 29.99 in 2.5 mi Calm Calm - N/A   Partly Cloudy
7:55 AM 71.2 °F - 70.7 °F 98% 29.99 in 2.5 mi Calm Calm - N/A   Partly Cloudy
8:02 AM 71.6 °F - 71.6 °F 100% 29.99 in 2.0 mi Calm Calm - N/A   Clear
8:17 AM 73.4 °F - 71.6 °F 94% 29.99 in 2.5 mi Calm Calm - N/A   Clear
8:26 AM 73.4 °F - 73.4 °F 100% 30.00 in 3.0 mi Calm Calm - N/A   Clear
8:55 AM 75.7 °F - 73.2 °F 92% 30.00 in 6.0 mi NNW 5.8 mph - N/A   Clear
9:55 AM 79.2 °F - 71.8 °F 78% 30.00 in 4.0 mi North 4.6 mph - N/A   Haze
10:55 AM 83.1 °F 87.1 °F 70.0 °F 64% 29.99 in 7.0 mi Calm Calm - N/A   Scattered Clouds
11:55 AM 84.6 °F 87.4 °F 67.3 °F 56% 29.97 in 8.0 mi Calm Calm - N/A   Partly Cloudy
12:55 PM 84.7 °F 87.6 °F 67.5 °F 56% 29.94 in 10.0 mi Calm Calm - N/A   Scattered Clouds
1:55 PM 85.6 °F 88.5 °F 67.5 °F 54% 29.92 in 10.0 mi Calm Calm - N/A   Mostly Cloudy
2:23 PM 84.2 °F 88.4 °F 69.8 °F 62% 29.91 in 10.0 mi SSW 13.8 mph - N/A Rain Light Rain
2:41 PM 77.0 °F - 69.8 °F 78% 29.92 in 2.5 mi SSW 9.2 mph - N/A Rain Rain
2:43 PM 77.0 °F - 69.8 °F 78% 29.92 in 2.0 mi SSW 10.4 mph - N/A Rain Heavy Rain
2:49 PM 75.2 °F - 69.8 °F 83% 29.92 in 1.8 mi SW 8.1 mph - N/A Rain Heavy Rain
2:55 PM 75.4 °F - 70.5 °F 85% 29.92 in 1.8 mi WSW 9.2 mph - 0.17 in Rain Heavy Rain
3:00 PM 73.4 °F - 69.8 °F 88% 29.91 in 2.0 mi West 9.2 mph - N/A Rain Light Rain
3:01 PM 73.4 °F - 69.8 °F 88% 29.91 in 2.5 mi WNW 9.2 mph - N/A Rain Light Rain
3:02 PM 73.4 °F - 69.8 °F 88% 29.91 in 3.0 mi WNW 9.2 mph - N/A Rain Light Rain
3:25 PM 73.4 °F - 68.0 °F 83% 29.91 in 10.0 mi WNW 9.2 mph - N/A   Mostly Cloudy
3:55 PM 73.2 °F - 68.9 °F 86% 29.91 in 10.0 mi WNW 4.6 mph - 0.03 in   Overcast
4:55 PM 75.6 °F - 69.3 °F 81% 29.90 in 10.0 mi Calm Calm - N/A   Overcast
5:55 PM 76.1 °F - 71.2 °F 85% 29.90 in 10.0 mi Calm Calm - N/A   Light Drizzle
6:55 PM 73.9 °F - 71.2 °F 91% 29.90 in 10.0 mi Calm Calm - N/A   Partly Cloudy
7:19 PM 73.4 °F - 71.6 °F 94% 29.91 in 10.0 mi Calm Calm - N/A   Mostly Cloudy
7:23 PM 73.4 °F - 71.6 °F 94% 29.91 in 10.0 mi Calm Calm - N/A   Scattered Clouds
7:26 PM 73.4 °F - 71.6 °F 94% 29.91 in 10.0 mi Calm Calm - N/A   Mostly Cloudy
7:35 PM 73.4 °F - 71.6 °F 94% 29.91 in 10.0 mi Calm Calm - N/A   Mostly Cloudy
7:55 PM 73.4 °F - 70.7 °F 91% 29.91 in 10.0 mi Calm Calm - N/A   Mostly Cloudy
7:59 PM 73.4 °F - 69.8 °F 88% 29.91 in 10.0 mi Calm Calm - N/A   Light Drizzle
8:09 PM 73.4 °F - 69.8 °F 88% 29.91 in 10.0 mi Calm Calm - N/A   Partly Cloudy
8:55 PM 72.3 °F - 70.0 °F 92% 29.91 in 10.0 mi Calm Calm - 0.00 in   Scattered Clouds
9:55 PM 71.8 °F - 69.6 °F 93% 29.91 in 10.0 mi Calm Calm - N/A   Partly Cloudy
10:55 PM 71.6 °F - 69.8 °F 94% 29.91 in 10.0 mi Calm Calm - N/A   Scattered Clouds
11:55 PM 71.8 °F - 69.6 °F 93% 29.90 in 10.0 mi Calm Calm - N/A   Scattered Clouds